BEL2NM EBBR-LKPR

Flight info

Callsign BEL2NM
Flight time N/A
Altitude 35000
Route SOPOK Y863 OGLOR DCT EMGOD DCT BOMBI DCT BOREP DCT TONSU Z35 ODOMO DCT LOMKI
Aircraft A319/M-SDE3FGHIRWY/LB1

Departure

Time 2026-05-07 13:45
Airport Brussels Airport (EBBR)

Arrival

Time N/A
Airport Václav Havel Airport Prague (LKPR)
Time Latitude Longitude Altitude Speed Heading
2026-05-07 13:09 50.90279 4.48574 118 ft 0 kts 335°
2026-05-07 13:35 50.90268 4.48581 121 ft 4 kts 339°
2026-05-07 13:35 50.90242 4.48593 119 ft 4 kts 353°
2026-05-07 13:35 50.90216 4.48594 121 ft 4 kts 11°
2026-05-07 13:36 50.90191 4.48580 119 ft 4 kts 43°
2026-05-07 13:36 50.90183 4.48565 119 ft 0 kts 65°
2026-05-07 13:40 50.90197 4.48610 121 ft 12 kts 65°
2026-05-07 13:40 50.90242 4.48768 124 ft 17 kts 65°
2026-05-07 13:40 50.90294 4.48950 122 ft 19 kts 65°
2026-05-07 13:40 50.90353 4.49151 124 ft 21 kts 65°
2026-05-07 13:41 50.90413 4.49360 121 ft 15 kts 65°
2026-05-07 13:41 50.90454 4.49505 122 ft 15 kts 70°
2026-05-07 13:41 50.90384 4.49563 125 ft 15 kts 195°
2026-05-07 13:41 50.90278 4.49520 122 ft 16 kts 194°
2026-05-07 13:42 50.90167 4.49475 129 ft 17 kts 194°
2026-05-07 13:42 50.90055 4.49430 128 ft 17 kts 194°
2026-05-07 13:42 50.89936 4.49383 135 ft 17 kts 194°
2026-05-07 13:42 50.89829 4.49335 141 ft 15 kts 195°
2026-05-07 13:43 50.89737 4.49299 147 ft 13 kts 194°
2026-05-07 13:43 50.89625 4.49249 154 ft 19 kts 209°
2026-05-07 13:43 50.89498 4.49161 160 ft 21 kts 194°
2026-05-07 13:43 50.89358 4.49103 166 ft 20 kts 194°
2026-05-07 13:44 50.89227 4.49050 173 ft 18 kts 194°
2026-05-07 13:44 50.89147 4.49036 177 ft 9 kts 142°
2026-05-07 13:44 50.89161 4.49155 176 ft 15 kts 69°
2026-05-07 13:44 50.89250 4.49540 176 ft 73 kts 70°
2026-05-07 13:45 50.89512 4.50664 176 ft 141 kts 70°
2026-05-07 13:45 50.89882 4.52236 625 ft 155 kts 69°
2026-05-07 13:45 50.90332 4.53787 1330 ft 156 kts 62°
2026-05-07 13:45 50.90841 4.55309 2050 ft 157 kts 61°
2026-05-07 13:46 50.91337 4.56817 2793 ft 156 kts 62°
2026-05-07 13:46 50.91829 4.58342 3463 ft 157 kts 62°
2026-05-07 13:46 50.92361 4.59986 3843 ft 178 kts 63°
2026-05-07 13:46 50.92964 4.61849 4194 ft 201 kts 62°
2026-05-07 13:47 50.93407 4.63208 4417 ft 217 kts 62°
2026-05-07 13:47 50.94006 4.65559 4810 ft 243 kts 72°
2026-05-07 13:47 50.94709 4.69139 5676 ft 265 kts 73°
2026-05-07 13:47 50.95237 4.71982 6602 ft 271 kts 75°
2026-05-07 13:48 50.95430 4.73959 7165 ft 276 kts 89°
2026-05-07 13:48 50.95171 4.76994 8057 ft 281 kts 109°
2026-05-07 13:48 50.94278 4.79762 9000 ft 284 kts 128°
2026-05-07 13:48 50.92866 4.81962 9943 ft 286 kts 142°
2026-05-07 13:49 50.91297 4.84014 10525 ft 302 kts 142°
2026-05-07 13:49 50.89550 4.86081 10914 ft 321 kts 150°
2026-05-07 13:49 50.87526 4.87590 11603 ft 328 kts 162°
2026-05-07 13:49 50.85287 4.88416 12386 ft 332 kts 174°
2026-05-07 13:50 50.82971 4.88788 13190 ft 336 kts 175°
2026-05-07 13:50 50.80623 4.89156 13969 ft 341 kts 175°
2026-05-07 13:50 50.77464 4.89650 14889 ft 346 kts 175°
2026-05-07 13:50 50.75838 4.89906 15370 ft 349 kts 175°
2026-05-07 13:51 50.73411 4.90289 16088 ft 352 kts 175°
2026-05-07 13:51 50.70998 4.90836 16779 ft 357 kts 167°
2026-05-07 13:51 50.68672 4.92289 17468 ft 364 kts 152°
2026-05-07 13:51 50.66640 4.94717 18167 ft 370 kts 136°
2026-05-07 13:52 50.65074 4.97971 18782 ft 376 kts 120°
2026-05-07 13:52 50.64086 5.01806 19386 ft 380 kts 108°
2026-05-07 13:52 50.63276 5.05801 20017 ft 383 kts 109°
2026-05-07 13:52 50.62452 5.09821 20636 ft 387 kts 109°
2026-05-07 13:53 50.61627 5.13825 21228 ft 390 kts 109°
2026-05-07 13:53 50.60778 5.17916 21847 ft 393 kts 109°
2026-05-07 13:53 50.59925 5.22020 22451 ft 396 kts 109°
2026-05-07 13:53 50.59054 5.26172 23049 ft 400 kts 110°
2026-05-07 13:54 50.57731 5.30007 23598 ft 401 kts 131°
2026-05-07 13:54 50.55738 5.33001 24074 ft 402 kts 140°
2026-05-07 13:54 50.53639 5.35932 24563 ft 405 kts 139°
2026-05-07 13:54 50.51545 5.38935 25043 ft 407 kts 139°
2026-05-07 13:55 50.49464 5.41982 25498 ft 410 kts 138°
2026-05-07 13:55 50.47378 5.45068 25955 ft 413 kts 138°
2026-05-07 13:55 50.45275 5.48188 26407 ft 416 kts 138°
2026-05-07 13:55 50.43186 5.51284 26844 ft 419 kts 138°
2026-05-07 13:56 50.41056 5.54425 27285 ft 421 kts 138°
2026-05-07 13:56 50.38903 5.57580 27715 ft 424 kts 138°
2026-05-07 13:56 50.36734 5.60745 28144 ft 427 kts 138°
2026-05-07 13:56 50.34548 5.63925 28594 ft 430 kts 138°
2026-05-07 13:57 50.32347 5.67119 29010 ft 433 kts 138°
2026-05-07 13:57 50.30157 5.70292 29411 ft 436 kts 138°
2026-05-07 13:57 50.27989 5.73644 29803 ft 439 kts 132°
2026-05-07 13:57 50.26151 5.77501 30184 ft 443 kts 122°
2026-05-07 13:58 50.24727 5.81796 30500 ft 447 kts 112°
2026-05-07 13:58 50.23759 5.86424 30818 ft 450 kts 104°
2026-05-07 13:58 50.22982 5.91121 31116 ft 452 kts 105°
2026-05-07 13:58 50.22168 5.95951 31428 ft 455 kts 105°
2026-05-07 13:59 50.21364 6.00677 31735 ft 457 kts 105°
2026-05-07 13:59 50.20542 6.05478 32160 ft 457 kts 105°
2026-05-07 13:59 50.19718 6.10274 32587 ft 456 kts 105°
2026-05-07 13:59 50.18923 6.15082 33013 ft 456 kts 102°
2026-05-07 14:00 50.18494 6.19992 33427 ft 456 kts 92°
2026-05-07 14:00 50.18544 6.24867 33834 ft 455 kts 84°
2026-05-07 14:00 50.18872 6.29785 34212 ft 455 kts 83°
2026-05-07 14:00 50.19193 6.34710 34558 ft 455 kts 84°
2026-05-07 14:01 50.19498 6.39613 34885 ft 455 kts 84°
2026-05-07 14:01 50.19795 6.44541 35007 ft 454 kts 84°
2026-05-07 14:01 50.20085 6.49414 35032 ft 446 kts 84°
2026-05-07 14:02 50.20655 6.58942 35035 ft 441 kts 84°
2026-05-07 14:02 50.20918 6.68505 35039 ft 441 kts 91°
2026-05-07 14:03 50.20748 6.78093 35047 ft 441 kts 91°
2026-05-07 14:03 50.20566 6.87756 35293 ft 448 kts 91°
2026-05-07 14:03 50.20473 6.92634 35567 ft 449 kts 91°
2026-05-07 14:04 50.20381 6.97510 35842 ft 449 kts 91°
2026-05-07 14:04 50.20287 7.02329 36123 ft 449 kts 92°
2026-05-07 14:04 50.20188 7.07280 36403 ft 450 kts 92°
2026-05-07 14:04 50.20093 7.12098 36673 ft 450 kts 92°
2026-05-07 14:05 50.19993 7.16993 36948 ft 450 kts 92°
2026-05-07 14:05 50.19780 7.26790 37055 ft 451 kts 92°
2026-05-07 14:06 50.19318 7.36492 37048 ft 450 kts 99°
2026-05-07 14:06 50.18444 7.46187 37050 ft 450 kts 98°
2026-05-07 14:07 50.17572 7.55883 37055 ft 450 kts 98°
2026-05-07 14:07 50.16702 7.65511 37037 ft 451 kts 98°
2026-05-07 14:08 50.15822 7.75220 37036 ft 451 kts 98°
2026-05-07 14:08 50.14927 7.84887 37038 ft 451 kts 99°
2026-05-07 14:09 50.14016 7.94581 37043 ft 451 kts 99°
2026-05-07 14:09 50.13108 8.04216 37049 ft 451 kts 99°
2026-05-07 14:10 50.12198 8.13864 37053 ft 452 kts 99°
2026-05-07 14:10 50.11261 8.23567 37058 ft 452 kts 99°
2026-05-07 14:11 50.10321 8.33267 37058 ft 452 kts 99°
2026-05-07 14:11 50.09380 8.42900 37056 ft 452 kts 99°
2026-05-07 14:12 50.08421 8.52567 37057 ft 452 kts 99°
2026-05-07 14:12 50.07459 8.62253 37057 ft 452 kts 99°
2026-05-07 14:13 50.06495 8.71878 37056 ft 452 kts 99°
2026-05-07 14:13 50.05598 8.81583 37054 ft 452 kts 94°
2026-05-07 14:14 50.05187 8.91355 37050 ft 452 kts 94°
2026-05-07 14:14 50.04767 9.01218 37055 ft 463 kts 94°
2026-05-07 14:15 50.04326 9.11268 37056 ft 472 kts 94°
2026-05-07 14:15 50.03862 9.21535 37052 ft 474 kts 95°
2026-05-07 14:16 50.03390 9.31742 37052 ft 475 kts 95°
2026-05-07 14:16 50.02910 9.41991 37043 ft 475 kts 95°
2026-05-07 14:17 50.02421 9.52248 37044 ft 475 kts 95°
2026-05-07 14:17 50.01928 9.62499 37038 ft 475 kts 95°
2026-05-07 14:18 50.01425 9.72754 37038 ft 475 kts 95°
2026-05-07 14:18 50.00915 9.82939 37042 ft 475 kts 95°
2026-05-07 14:19 50.00391 9.93191 37047 ft 475 kts 95°
2026-05-07 14:19 49.99858 10.03447 37049 ft 475 kts 95°
2026-05-07 14:20 49.99316 10.13629 37039 ft 475 kts 95°
2026-05-07 14:20 49.98762 10.23892 37041 ft 476 kts 95°
2026-05-07 14:21 49.98203 10.34152 37041 ft 476 kts 95°
2026-05-07 14:21 49.97644 10.44344 37040 ft 476 kts 96°
2026-05-07 14:22 49.97056 10.54606 37036 ft 476 kts 96°
2026-05-07 14:22 49.96590 10.64855 37027 ft 476 kts 90°
2026-05-07 14:23 49.96686 10.75156 37030 ft 477 kts 90°
2026-05-07 14:23 49.96773 10.85409 37028 ft 477 kts 90°
2026-05-07 14:24 49.96843 10.95746 37031 ft 477 kts 90°
2026-05-07 14:24 49.96900 11.06013 37027 ft 478 kts 90°
2026-05-07 14:25 49.96953 11.16348 37031 ft 478 kts 90°
2026-05-07 14:25 49.96942 11.26691 37028 ft 478 kts 92°
2026-05-07 14:26 49.96647 11.36951 37022 ft 477 kts 94°
2026-05-07 14:26 49.96220 11.47237 37009 ft 477 kts 95°
2026-05-07 14:27 49.95840 11.57359 37016 ft 461 kts 94°
2026-05-07 14:27 49.95522 11.67220 37015 ft 458 kts 94°
2026-05-07 14:28 49.95194 11.77125 37012 ft 458 kts 94°
2026-05-07 14:28 49.94839 11.87013 37013 ft 458 kts 94°
2026-05-07 14:29 49.94496 11.96831 37010 ft 458 kts 94°
2026-05-07 14:29 49.94285 12.06727 37016 ft 458 kts 93°
2026-05-07 14:30 49.94125 12.16587 37016 ft 458 kts 93°
2026-05-07 14:30 49.93933 12.26509 37008 ft 458 kts 93°
2026-05-07 14:31 49.93742 12.34724 37011 ft 458 kts 94°
2026-05-07 14:31 49.93424 12.46238 36856 ft 459 kts 94°
2026-05-07 14:31 49.93326 12.49523 36676 ft 458 kts 94°
2026-05-07 14:32 49.93175 12.54478 35931 ft 462 kts 94°
2026-05-07 14:32 49.93020 12.59430 35453 ft 457 kts 94°
2026-05-07 14:32 49.92866 12.64348 34882 ft 455 kts 94°
2026-05-07 14:32 49.92719 12.69260 34306 ft 454 kts 94°
2026-05-07 14:33 49.92576 12.74151 33710 ft 452 kts 94°
2026-05-07 14:33 49.92432 12.79005 33144 ft 448 kts 94°
2026-05-07 14:33 49.92283 12.83842 32570 ft 445 kts 94°
2026-05-07 14:33 49.92130 12.88624 32024 ft 443 kts 95°
2026-05-07 14:34 49.91978 12.93335 31486 ft 440 kts 94°
2026-05-07 14:34 49.91822 12.98073 30947 ft 437 kts 94°
2026-05-07 14:34 49.91666 13.02764 30409 ft 434 kts 95°
2026-05-07 14:34 49.91510 13.07439 29845 ft 431 kts 95°
2026-05-07 14:35 49.91355 13.12053 29309 ft 425 kts 95°
2026-05-07 14:35 49.91197 13.16613 28813 ft 420 kts 95°
2026-05-07 14:35 49.91042 13.21046 28329 ft 414 kts 95°
2026-05-07 14:35 49.90888 13.25476 27860 ft 409 kts 95°
2026-05-07 14:36 49.90734 13.29869 27407 ft 404 kts 95°
2026-05-07 14:36 49.90580 13.34203 26960 ft 399 kts 95°
2026-05-07 14:36 49.90424 13.38490 26524 ft 395 kts 95°
2026-05-07 14:36 49.90362 13.42693 26102 ft 394 kts 88°
2026-05-07 14:37 49.90790 13.46890 25652 ft 393 kts 76°
2026-05-07 14:37 49.93166 13.54443 24761 ft 391 kts 53°
2026-05-07 14:37 49.94831 13.57771 24306 ft 388 kts 53°
2026-05-07 14:38 49.96479 13.61092 23849 ft 387 kts 53°
2026-05-07 14:38 49.98113 13.64408 23337 ft 385 kts 53°
2026-05-07 14:38 49.99715 13.67670 22860 ft 382 kts 53°
2026-05-07 14:38 50.01324 13.70950 22395 ft 378 kts 53°
2026-05-07 14:39 50.02921 13.74200 21933 ft 375 kts 53°
2026-05-07 14:39 50.04502 13.77417 21476 ft 372 kts 53°
2026-05-07 14:39 50.06062 13.80621 21014 ft 369 kts 57°
2026-05-07 14:39 50.07310 13.84019 20581 ft 363 kts 68°
2026-05-07 14:40 50.08120 13.87690 20152 ft 357 kts 79°
2026-05-07 14:40 50.08565 13.91474 19732 ft 353 kts 83°
2026-05-07 14:40 50.08985 13.95242 19304 ft 352 kts 83°
2026-05-07 14:40 50.09411 13.98984 18885 ft 350 kts 83°
2026-05-07 14:41 50.09839 14.02708 18479 ft 349 kts 83°
2026-05-07 14:41 50.10267 14.06427 18036 ft 347 kts 83°
2026-05-07 14:41 50.10691 14.10116 17609 ft 344 kts 83°
2026-05-07 14:41 50.11105 14.13772 17215 ft 342 kts 83°
2026-05-07 14:42 50.11512 14.17412 16817 ft 339 kts 83°
2026-05-07 14:42 50.11915 14.21030 16415 ft 337 kts 83°
2026-05-07 14:42 50.12307 14.24578 16037 ft 335 kts 83°
2026-05-07 14:42 50.12702 14.28149 15654 ft 333 kts 83°
2026-05-07 14:43 50.13093 14.31716 15271 ft 332 kts 83°
2026-05-07 14:43 50.13363 14.35272 14881 ft 327 kts 93°
2026-05-07 14:43 50.13144 14.38769 14513 ft 321 kts 106°
2026-05-07 14:43 50.12460 14.42013 14144 ft 316 kts 119°
2026-05-07 14:44 50.11353 14.44918 13774 ft 310 kts 131°
2026-05-07 14:44 50.10043 14.47584 13381 ft 309 kts 131°
2026-05-07 14:44 50.08743 14.50239 13011 ft 306 kts 131°
2026-05-07 14:44 50.07457 14.52877 12643 ft 304 kts 131°
2026-05-07 14:45 50.06182 14.55499 12287 ft 303 kts 131°
2026-05-07 14:45 50.04918 14.58105 11895 ft 301 kts 131°
2026-05-07 14:45 50.03655 14.60702 11523 ft 300 kts 131°
2026-05-07 14:45 50.02394 14.63288 11144 ft 299 kts 131°
2026-05-07 14:46 50.01138 14.65854 10766 ft 298 kts 131°
2026-05-07 14:46 49.99886 14.68409 10387 ft 297 kts 131°
2026-05-07 14:46 49.98577 14.70838 9991 ft 295 kts 136°
2026-05-07 14:46 49.97117 14.73012 9773 ft 287 kts 146°
2026-05-07 14:47 49.95366 14.74444 9147 ft 287 kts 171°
2026-05-07 14:47 49.93442 14.74394 8857 ft 273 kts 198°
2026-05-07 14:47 49.91791 14.73035 8459 ft 268 kts 220°
2026-05-07 14:47 49.90644 14.70781 8042 ft 267 kts 245°
2026-05-07 14:48 49.90316 14.67969 7616 ft 269 kts 274°
2026-05-07 14:48 49.90973 14.65261 7241 ft 273 kts 302°
2026-05-07 14:48 49.92119 14.62901 6556 ft 282 kts 304°
2026-05-07 14:48 49.93332 14.60441 5767 ft 291 kts 305°
2026-05-07 14:49 49.94574 14.57922 5182 ft 292 kts 305°
2026-05-07 14:49 49.95787 14.55466 4984 ft 279 kts 304°
2026-05-07 14:49 49.96927 14.53110 4861 ft 265 kts 304°
2026-05-07 14:49 49.98006 14.50884 4760 ft 250 kts 304°
2026-05-07 14:50 49.99037 14.48769 4528 ft 242 kts 304°
2026-05-07 14:50 50.00028 14.46738 4226 ft 234 kts 304°
2026-05-07 14:50 50.00996 14.44751 3910 ft 227 kts 304°
2026-05-07 14:50 50.01936 14.42819 3619 ft 221 kts 304°
2026-05-07 14:51 50.02854 14.40933 3325 ft 216 kts 304°
2026-05-07 14:51 50.03749 14.39092 3035 ft 211 kts 304°
2026-05-07 14:51 50.04618 14.37304 2761 ft 201 kts 304°
2026-05-07 14:51 50.05438 14.35616 2496 ft 189 kts 304°
2026-05-07 14:52 50.06213 14.34018 2243 ft 182 kts 304°
2026-05-07 14:52 50.06950 14.32500 2021 ft 168 kts 303°